[[{"header":{"parameterUnit":"m.s-1","parameterCategory":1,"la1":30.2991,"la2":30.254,"lo1":-89.0895,"lo2":-89.0444,"dy":0.0017,"dx":0.0017,"nx":28,"ny":28,"refTime":"2025-09-11T21:00:00:Z","depth":0,"parameterNumber":2,"parameterNumberName":"U-component_of_WINDS"},"data":[0,0,0,0,0,0,0,0,0,0,0,0,0,0,0,0,0,0,0,0,0,0,0,0,0,0,0,0,0,0,0,0,0,0,0,0,0,0,0,0,0,0,0,0,0,0,0,0,0,0,0,0,0,0,0,0,0,0,0.0575,0.0574,0,0.0493,0.0492,0.0491,0.0441,0.0441,0.0441,0.044,0.0356,0.0354,0.0352,0,0,0,0,0,0,0,0,0,0,0,0,0,0.0688,0.0686,0.0575,0.0574,0.0573,0.0493,0.0492,0.0491,0.0441,0.0441,0.044,0.044,0.0357,0.0354,0.0352,0,0,0,0,0,0,0,0,0,0,0,0,0,0.0626,0.0685,0.0575,0.0538,0.0534,0.0493,0.0492,0.0491,0.0441,0.0441,0.044,0.044,0.0358,0.0355,0.0352,0.0341,0,0,0.0343,0.0341,0,0,0,0,0,0,0,0,0.0629,0.0622,0.0545,0.0541,0.0536,0.0477,0.0501,0.044,0.0441,0.0477,0.044,0.044,0.0397,0.039,0.0376,0.0337,0.0333,0.0342,0.034,0.0339,0.0338,0,0,0,0,0,0,0,0.0634,0.0625,0.0542,0.0544,0.0538,0.0526,0.0517,0.0489,0.044,0.0473,0.047,0.0461,0.0394,0.0379,0.0373,0.0332,0.0342,0.034,0.0338,0.0337,0.028,0.028,0,0,0,0,0,0,0.0644,0.0629,0.0545,0.054,0.0583,0.0524,0.0514,0.0496,0.044,0.0431,0.0461,0.0459,0.0384,0.0377,0.037,0.0354,0.0339,0.0336,0.0335,0.028,0.028,0.028,0,0,0,0,0,0,0.0646,0.0637,0.0548,0.0583,0.0571,0.0523,0.0503,0.0495,0.0479,0.043,0.0421,0.0455,0.0384,0.0375,0.0349,0.0351,0.0335,0.0332,0.0279,0.028,0.028,0.0322,0,0,0,0,0,0,0.065,0.0638,0.0634,0.0584,0.0569,0.0528,0.0503,0.0494,0.0474,0.0471,0.0422,0.0414,0.0383,0.0353,0.0346,0.0346,0.033,0.0279,0.028,0.028,0.032,0.0324,0.0327,0,0,0,0,0,0.0654,0.0648,0.0634,0.0624,0.0563,0.0528,0.052,0.0485,0.0475,0.047,0.0438,0.0415,0.0351,0.0351,0.0342,0.0342,0.0279,0.0279,0.028,0.0319,0.0323,0.0327,0,0,0,0,0,0,0.07,0.0641,0.0624,0.0602,0.0571,0.052,0.0513,0.0491,0.0461,0.0459,0.0416,0.0405,0.0384,0.036,0.0361,0.0328,0.0312,0.0311,0.0345,0.0349,0.0352,0.0359,0.0327,0,0,0,0,0,0.0707,0.0685,0.0634,0.062,0.0605,0.0562,0.0545,0.0521,0.0487,0.0473,0.0439,0.0407,0.038,0.0363,0.0335,0.0316,0.0305,0.0311,0.0315,0.0318,0.0318,0.0307,0.0309,0.0283,0.0283,0.0283,0,0,0.0723,0.0688,0.0676,0.0628,0.0601,0.0578,0.0551,0.0528,0.0511,0.0469,0.0443,0.0417,0.0378,0.0356,0.0345,0.0336,0.0322,0.0319,0.0321,0.032,0.0308,0.031,0.0313,0.0283,0.0283,0.0283,0,0,0.074,0.0711,0.0696,0.0669,0.0628,0.0599,0.0596,0.0548,0.053,0.0502,0.0471,0.045,0.0403,0.0377,0.0358,0.0364,0.0342,0.0356,0.0374,0.0364,0.0366,0.0368,0.0371,0.0372,0.0356,0.0356,0.0356,0,0.0764,0.0729,0.0691,0.067,0.065,0.0611,0.0596,0.0571,0.0524,0.0511,0.0501,0.0442,0.0413,0.0385,0.0386,0.0371,0.0366,0.0362,0.0369,0.037,0.0371,0.0374,0.0375,0.0358,0.0358,0.0358,0.0357,0,0.0761,0.0737,0.073,0.0685,0.0664,0.0646,0.0605,0.0588,0.0565,0.0538,0.0511,0.0474,0.0439,0.043,0.0407,0.0398,0.0394,0.0377,0.036,0.0376,0.0378,0.0379,0.0361,0.036,0.036,0.0359,0,0,0.0806,0.074,0.0738,0.0717,0.0669,0.065,0.063,0.0595,0.0582,0.055,0.0532,0.0494,0.0478,0.0456,0.043,0.042,0.0429,0.0405,0.0403,0.0411,0.0418,0.0432,0.0434,0.0413,0.0413,0.0413,0.0422,0,0.0816,0.0779,0.0744,0.072,0.0697,0.066,0.0642,0.0611,0.0584,0.0561,0.0532,0.0506,0.0486,0.0473,0.0462,0.043,0.043,0.0429,0.0397,0.0397,0.041,0.0434,0.0449,0.0459,0.0422,0.0422,0.0422,0,0.0824,0.0794,0.0768,0.0722,0.0711,0.0696,0.0662,0.064,0.0604,0.0585,0.056,0.0532,0.051,0.0495,0.0463,0.0463,0.0448,0.0431,0.043,0.0427,0.0412,0.0433,0.0461,0.0463,0.0423,0.0422,0.0422,0,0.0861,0.0814,0.0792,0.0775,0.0721,0.0711,0.0688,0.0651,0.0633,0.0602,0.059,0.0557,0.0539,0.0514,0.0478,0.0471,0.0451,0.0433,0.0435,0.0436,0.0434,0.0435,0.0461,0.0422,0.0422,0.0422,0.0422,0,0.0877,0.0863,0.0808,0.0795,0.0777,0.0736,0.072,0.0694,0.0661,0.0642,0.0607,0.059,0.0543,0.052,0.0492,0.047,0.0462,0.0447,0.044,0.0451,0.0453,0.0441,0.044,0.0422,0.0422,0.0422,0.0422,0,0.0916,0.0878,0.0852,0.0803,0.079,0.078,0.0737,0.0723,0.0694,0.067,0.0662,0.0617,0.0588,0.055,0.0509,0.049,0.0473,0.046,0.0485,0.0481,0.0487,0.0487,0.0507,0.0508,0.0468,0.0468,0.0468,0,0.093,0.0918,0.0867,0.0852,0.083,0.0806,0.0787,0.0746,0.0727,0.0685,0.0676,0.0644,0.0617,0.0573,0.0537,0.0505,0.0493,0.0502,0.0488,0.05,0.0495,0.0497,0.0496,0.0506,0.0507,0.0507,0.0508,0,0.0959,0.0941,0.0915,0.0882,0.086,0.0832,0.0803,0.0792,0.0745,0.0726,0.0696,0.0675,0.0634,0.0603,0.0567,0.0543,0.0518,0.0512,0.0511,0.0523,0.0539,0.0532,0.0496,0.0512,0.0512,0.0512,0.0511,0.0511,0.0987,0.0975,0.0937,0.0909,0.0882,0.0856,0.084,0.0809,0.0784,0.0747,0.0724,0.0695,0.0659,0.0608,0.0585,0.0562,0.0552,0.055,0.055,0.0551,0.0555,0.0541,0.0555,0.0555,0.0554,0.0554,0.0554,0,0.1015,0.0989,0.0963,0.0923,0.0901,0.0879,0.0845,0.0828,0.0804,0.0772,0.0746,0.0712,0.0682,0.0643,0.061,0.06,0.0587,0.0593,0.0594,0.0589,0.0565,0.057,0.0603,0.0603,0.0603,0.0603,0.0603,0.0603,0.1027,0.1006,0.0983,0.0948,0.0922,0.0894,0.0877,0.0852,0.0826,0.079,0.0765,0.0739,0.0705,0.0669,0.0641,0.063,0.062,0.0629,0.0615,0.0595,0.059,0.0586,0.059,0.0627,0.0627,0.0641,0.0641,0.0641]},{"header":{"parameterUnit":"m.s-1","parameterCategory":1,"la1":30.2991,"la2":30.254,"lo1":-89.0895,"lo2":-89.0444,"dy":0.0017,"dx":0.0017,"nx":28,"ny":28,"refTime":"2025-09-11T21:00:00:Z","depth":0,"parameterNumber":3,"parameterNumberName":"V-component_of_WINDS"},"data":[0,0,0,0,0,0,0,0,0,0,0,0,0,0,0,0,0,0,0,0,0,0,0,0,0,0,0,0,0,0,0,0,0,0,0,0,0,0,0,0,0,0,0,0,0,0,0,0,0,0,0,0,0,0,0,0,0,0,-2.806,-2.806,0,-2.8147,-2.8148,-2.8149,-2.8134,-2.8132,-2.8131,-2.8129,-2.8214,-2.8218,-2.8222,0,0,0,0,0,0,0,0,0,0,0,0,0,-2.7877,-2.7881,-2.8059,-2.8061,-2.8062,-2.8146,-2.8148,-2.8149,-2.8134,-2.8132,-2.813,-2.8129,-2.8213,-2.8217,-2.8222,0,0,0,0,0,0,0,0,0,0,0,0,0,-2.7959,-2.7882,-2.8059,-2.8065,-2.8066,-2.8146,-2.8148,-2.8149,-2.8134,-2.8132,-2.813,-2.8128,-2.8212,-2.8217,-2.8222,-2.8302,0,0,-2.8239,-2.8242,0,0,0,0,0,0,0,0,-2.7955,-2.7966,-2.8063,-2.8064,-2.8066,-2.8127,-2.8114,-2.82,-2.8135,-2.8108,-2.8129,-2.8127,-2.8187,-2.8194,-2.8215,-2.8306,-2.8309,-2.824,-2.8243,-2.8245,-2.8247,0,0,0,0,0,0,0,-2.7949,-2.7962,-2.8094,-2.8064,-2.8066,-2.8062,-2.8071,-2.8131,-2.8159,-2.811,-2.811,-2.812,-2.8187,-2.821,-2.8217,-2.831,-2.824,-2.8244,-2.8248,-2.825,-2.847,-2.8473,0,0,0,0,0,0,-2.7942,-2.7958,-2.8091,-2.8096,-2.8004,-2.8067,-2.8077,-2.811,-2.8158,-2.8164,-2.8122,-2.8119,-2.8202,-2.8211,-2.822,-2.8317,-2.8245,-2.8251,-2.8254,-2.8468,-2.8471,-2.8474,0,0,0,0,0,0,-2.7938,-2.7954,-2.8087,-2.8027,-2.8043,-2.8072,-2.8109,-2.8113,-2.8135,-2.8167,-2.8172,-2.8141,-2.82,-2.8212,-2.8282,-2.8319,-2.8253,-2.8258,-2.8465,-2.8469,-2.8472,-2.8509,0,0,0,0,0,0,-2.7933,-2.7953,-2.7984,-2.8028,-2.8047,-2.8149,-2.8111,-2.8116,-2.8145,-2.8143,-2.8186,-2.8191,-2.82,-2.8274,-2.8287,-2.8326,-2.8262,-2.8461,-2.8466,-2.8471,-2.8505,-2.8514,-2.8522,0,0,0,0,0,-2.7927,-2.799,-2.7986,-2.8002,-2.8087,-2.8151,-2.8162,-2.8172,-2.8149,-2.818,-2.82,-2.8189,-2.8313,-2.8281,-2.8296,-2.8337,-2.8459,-2.8465,-2.8471,-2.8501,-2.8512,-2.8522,0,0,0,0,0,0,-2.7948,-2.7996,-2.7992,-2.8071,-2.8108,-2.8148,-2.8188,-2.8183,-2.8226,-2.8221,-2.8231,-2.824,-2.8311,-2.8331,-2.8294,-2.8416,-2.8383,-2.8392,-2.8401,-2.8411,-2.842,-2.8413,-2.8267,0,0,0,0,0,-2.7963,-2.8013,-2.8051,-2.8117,-2.8136,-2.8159,-2.8187,-2.8192,-2.8229,-2.8244,-2.827,-2.8305,-2.8352,-2.8383,-2.8428,-2.8508,-2.8517,-2.8543,-2.8551,-2.8558,-2.8566,-2.861,-2.8622,-2.8492,-2.8492,-2.8492,0,0,-2.7992,-2.8024,-2.8055,-2.8122,-2.8151,-2.8201,-2.8172,-2.8226,-2.8263,-2.8252,-2.832,-2.834,-2.838,-2.8455,-2.849,-2.8474,-2.8604,-2.8566,-2.8571,-2.8575,-2.8617,-2.8629,-2.864,-2.8496,-2.8496,-2.8495,0,0,-2.8072,-2.8101,-2.816,-2.819,-2.8235,-2.825,-2.8264,-2.8306,-2.832,-2.8388,-2.8381,-2.8424,-2.8505,-2.8534,-2.856,-2.8652,-2.8643,-2.8666,-2.871,-2.8752,-2.8763,-2.8772,-2.8805,-2.8816,-2.8673,-2.8673,-2.8673,0,-2.8103,-2.818,-2.8191,-2.8247,-2.8276,-2.827,-2.833,-2.8358,-2.8414,-2.8434,-2.8416,-2.8517,-2.8544,-2.8626,-2.8649,-2.867,-2.8685,-2.8661,-2.8761,-2.877,-2.8778,-2.881,-2.8822,-2.8676,-2.8676,-2.8675,-2.8675,0,-2.8215,-2.8269,-2.8311,-2.8367,-2.8402,-2.8459,-2.8478,-2.8511,-2.8513,-2.853,-2.8599,-2.8631,-2.8683,-2.8703,-2.8705,-2.8786,-2.8774,-2.8758,-2.8725,-2.8793,-2.8823,-2.8835,-2.8679,-2.8679,-2.8678,-2.8677,0,0,-2.8311,-2.8374,-2.8389,-2.8415,-2.8463,-2.8504,-2.8561,-2.8613,-2.8641,-2.868,-2.8728,-2.8797,-2.8783,-2.8811,-2.8816,-2.8854,-2.8925,-2.8833,-2.8834,-2.8849,-2.9016,-2.9028,-2.9042,-2.892,-2.8922,-2.8924,-2.9013,0,-2.8395,-2.8497,-2.8509,-2.8599,-2.8648,-2.8644,-2.8693,-2.8728,-2.8745,-2.8789,-2.8807,-2.8856,-2.8834,-2.8851,-2.8888,-2.8909,-2.8959,-2.8902,-2.8963,-2.8965,-2.8954,-2.9058,-2.907,-2.9153,-2.9025,-2.9027,-2.9028,0,-2.8507,-2.8551,-2.8647,-2.869,-2.8711,-2.8755,-2.8804,-2.8846,-2.8885,-2.8895,-2.8928,-2.8929,-2.8986,-2.8951,-2.903,-2.8992,-2.9017,-2.9031,-2.9035,-2.9041,-2.9001,-2.9066,-2.9179,-2.9191,-2.9046,-2.9045,-2.9044,0,-2.8567,-2.865,-2.8719,-2.8741,-2.8792,-2.8824,-2.8847,-2.8884,-2.8914,-2.8957,-2.8977,-2.9025,-2.9051,-2.9087,-2.91,-2.9073,-2.9179,-2.9145,-2.9188,-2.9188,-2.9211,-2.9209,-2.9329,-2.9227,-2.9227,-2.9227,-2.9226,0,-2.8661,-2.8719,-2.8747,-2.8789,-2.8854,-2.8867,-2.8931,-2.8952,-2.8985,-2.9031,-2.9029,-2.9071,-2.9086,-2.913,-2.914,-2.9205,-2.9216,-2.9225,-2.9227,-2.9226,-2.9225,-2.9242,-2.9237,-2.923,-2.9229,-2.9229,-2.9228,0,-2.8739,-2.876,-2.8834,-2.8877,-2.8889,-2.8936,-2.8972,-2.9012,-2.9029,-2.9087,-2.9101,-2.9127,-2.918,-2.9196,-2.9259,-2.9266,-2.9341,-2.9338,-2.9328,-2.9329,-2.9371,-2.9367,-2.9507,-2.9526,-2.9411,-2.9413,-2.9413,0,-2.8797,-2.8842,-2.8891,-2.8922,-2.8947,-2.8996,-2.9028,-2.9042,-2.9075,-2.9124,-2.9158,-2.921,-2.9253,-2.9337,-2.9361,-2.9408,-2.9407,-2.9452,-2.9414,-2.9411,-2.9407,-2.9405,-2.9409,-2.9459,-2.9461,-2.9462,-2.9462,0,-2.8898,-2.8906,-2.8953,-2.9004,-2.9042,-2.9083,-2.9121,-2.9146,-2.9166,-2.9203,-2.9258,-2.9291,-2.9356,-2.9408,-2.9457,-2.9479,-2.9474,-2.9475,-2.9487,-2.9486,-2.9479,-2.9483,-2.9348,-2.9471,-2.947,-2.947,-2.9469,-2.9469,-2.8968,-2.9008,-2.905,-2.9102,-2.9133,-2.9169,-2.921,-2.9232,-2.9278,-2.9334,-2.9339,-2.9397,-2.9435,-2.9501,-2.9526,-2.9571,-2.9558,-2.9576,-2.9581,-2.9585,-2.9589,-2.9472,-2.958,-2.958,-2.958,-2.9579,-2.9579,0,-2.9069,-2.9096,-2.9144,-2.9199,-2.924,-2.9234,-2.9276,-2.9311,-2.9363,-2.94,-2.9442,-2.9505,-2.9555,-2.9584,-2.9634,-2.9665,-2.9664,-2.9677,-2.9675,-2.968,-2.9598,-2.9582,-2.9677,-2.9677,-2.9677,-2.9677,-2.9677,-2.9677,-2.9127,-2.9195,-2.9208,-2.9292,-2.9317,-2.9376,-2.9401,-2.9435,-2.9464,-2.9535,-2.9577,-2.9596,-2.9629,-2.9682,-2.9728,-2.9735,-2.9753,-2.9768,-2.9774,-2.9696,-2.9686,-2.9676,-2.9662,-2.9772,-2.9772,-2.9853,-2.9853,-2.9854]}]]